RH
71 69 67 63 57 62 67 68 65 66 68 75 56 53 57 61 69 59 87 58 47 51 62 40 56 61 44 43 34 33 61 58 40 31 26 19 22 18 15 14 15 13 18 33 45
66 68 67 65 63 64 66 64 64 68 69 72 56 53 56 60 49 60 54 76 56 54 55 42 64 62 53 44 41 43 49 44 26 23 27 22 22 17 20 18 16 17 24 39 52
66 68 69 67 67 62 64 64 64 64 67 70 62 64 55 52 52 37 49 70 62 54 59 35 47 62 55 41 39 37 36 30 23 26 24 23 21 15 20 18 16 16 22 42 55
66 68 69 68 68 62 60 63 63 61 61 70 65 62 51 46 50 26 61 69 65 48 53 46 48 70 57 50 38 39 30 23 24 27 30 25 20 21 20 16 14 17 22 25 46
65 62 66 68 68 65 68 65 63 60 58 61 68 60 53 54 41 57 67 71 67 56 60 49 47 60 58 44 36 42 28 26 26 34 31 23 22 22 21 19 20 22 24 22 23
67 69 67 68 69 80 76 69 63 59 58 60 60 58 54 65 22 39 66 60 72 75 47 41 39 46 48 41 40 39 35 32 30 36 35 35 26 26 23 19 21 20 20 18 20
70 70 72 69 62 67 76 69 64 61 59 61 63 52 55 50 30 54 73 56 59 79 42 38 33 49 42 49 37 37 40 38 33 34 34 34 37 34 24 21 22 19 18 18 16
69 70 71 72 71 66 64 62 63 64 63 64 63 49 59 30 29 37 75 69 61 66 35 42 33 41 42 36 41 43 43 49 36 39 33 36 37 25 22 23 23 18 16 16 16
72 72 72 72 61 62 64 65 66 63 62 60 58 54 50 40 40 33 70 66 55 69 46 46 44 49 42 46 50 43 44 38 34 32 35 39 34 22 20 22 22 19 17 17 17
73 75 78 66 65 64 65 66 67 66 60 48 48 63 44 47 49 67 71 82 92 62 78 76 68 50 45 40 46 40 36 28 28 40 35 35 34 22 26 24 24 20 18 18 17
76 80 74 68 65 66 59 57 64 65 54 46 41 49 57 57 54 73 80 93 66 72 84 75 75 66 42 31 25 23 31 27 24 37 41 39 31 25 26 26 24 21 20 18 16
77 74 73 68 68 63 52 55 65 65 55 41 44 51 53 54 72 68 72 88 73 78 53 86 78 42 32 30 35 36 34 36 32 36 39 28 34 29 27 26 23 21 20 18 17
76 69 72 69 65 53 55 66 60 58 80 79 66 66 69 69 64 81 75 86 80 62 68 71 60 41 42 38 42 36 36 35 42 42 36 37 36 32 26 26 25 22 21 19 20
74 71 69 68 69 58 62 65 62 64 99 96 83 78 70 79 92 82 81 80 89 65 76 76 60 50 49 47 34 42 33 42 50 48 34 33 20 30 29 25 24 22 19 20 22
77 73 70 68 57 62 65 58 58 67 95 94 91 78 84 85 78 88 81 89 91 91 93 96 82 56 51 42 34 46 43 46 50 52 49 41 38 26 24 26 28 27 29 28 28
78 77 73 61 57 59 57 55 63 99 97 99 90 90 91 80 77 84 85 83 80 88 84 93 85 78 71 45 36 42 45 47 47 48 74 42 34 28 24 21 26 26 26 28 28
77 80 69 56 56 53 57 63 99 95 97 96 86 79 70 79 83 80 95 95 97 100 100 98 97 91 79 60 48 46 52 80 80 89 64 40 46 26 21 19 23 25 28 29 29
79 83 63 51 54 59 65 83 97 91 100 70 67 56 87 83 89 75 90 93 65 71 99 99 98 96 87 77 69 57 50 66 65 58 47 41 45 27 21 22 22 27 29 32 34
81 53 59 54 56 62 72 100 97 100 82 55 48 62 76 58 69 71 55 61 66 54 84 94 96 87 89 69 56 69 75 41 56 38 47 32 28 26 26 25 24 26 28 34 38
61 55 56 53 58 72 78 98 90 78 64 48 56 51 60 56 51 46 48 47 52 45 42 54 87 87 84 70 66 65 46 71 78 80 42 29 22 28 32 30 27 27 32 35 39
61 57 61 57 69 66 97 91 63 57 55 52 51 50 54 57 47 45 48 50 42 44 39 44 54 70 69 66 62 58 65 53 51 51 54 26 22 22 26 27 31 31 31 34 41
68 85 64 62 72 63 79 76 76 57 51 47 46 48 46 48 49 47 45 46 39 38 44 47 58 82 66 51 46 45 44 41 55 67 47 49 34 19 26 27 29 31 32 33 44
63 56 60 64 77 58 58 57 59 51 51 45 48 46 44 46 53 48 47 44 43 41 42 43 66 90 78 60 52 59 49 45 45 56 74 51 35 23 26 28 29 35 34 36 46
67 88 55 50 56 48 54 53 55 59 49 45 45 41 44 45 40 50 51 52 44 42 60 49 49 72 60 76 52 68 53 50 57 73 46 36 33 31 29 30 36 36 38 44 47
64 82 72 81 58 59 62 60 56 57 53 45 47 44 40 46 42 47 48 51 48 58 45 44 96 80 49 53 62 60 54 54 74 55 56 32 29 27 28 34 35 40 48 51 51
79 91 66 57 59 59 63 60 62 58 59 48 50 43 39 41 37 44 45 44 46 48 46 48 87 79 90 57 60 70 55 50 52 51 43 39 39 27 26 32 40 46 54 54 54
59 66 80 64 58 54 57 61 64 61 59 56 51 45 46 45 43 41 35 35 39 46 50 53 84 92 77 57 59 70 56 53 51 47 43 50 37 33 34 36 45 51 56 56 56
Wind_Speed
20 20 20 20 20 15 18 15 13 12 14 14 9 6 10 8 9 6 8 12 19 5 7 11 10 10 10 11 15 10 10 14 24 21 16 10 8 12 4 8 6 3 5 6 10
20 20 21 19 18 17 13 10 12 12 12 10 6 6 4 7 13 14 7 13 14 8 10 17 16 14 11 15 10 14 16 23 18 18 10 13 11 12 8 12 10 8 6 5 8
21 20 20 18 15 12 12 13 12 8 9 6 5 7 3 9 13 20 18 20 18 17 12 15 16 15 15 12 16 15 21 19 17 5 1 12 13 11 12 13 12 12 7 6 7
21 20 19 17 13 11 12 11 10 7 6 5 6 5 2 8 8 9 19 21 16 17 15 14 20 17 16 15 18 13 22 17 13 4 4 13 11 10 12 5 6 6 4 4 7
23 17 16 15 11 9 13 10 9 6 5 3 4 5 7 9 13 8 7 12 12 17 20 19 23 19 17 19 16 17 11 15 6 6 8 13 13 12 11 6 4 5 4 4 4
25 23 14 12 9 5 13 10 8 5 4 6 4 5 9 16 4 9 4 4 9 18 23 22 19 20 10 9 19 11 8 13 10 7 6 8 12 8 10 9 10 9 9 8 7
24 22 15 7 8 6 10 10 8 7 5 6 5 8 13 16 4 7 4 7 7 22 22 19 17 17 7 7 10 10 15 7 14 9 7 7 14 17 14 9 11 10 10 9 11
26 22 15 8 7 8 9 5 7 6 6 5 5 10 11 11 16 12 5 8 8 17 20 14 14 16 7 5 12 10 14 13 12 11 8 9 13 15 15 17 19 15 14 13 13
27 19 13 1 4 5 5 5 8 6 4 4 8 10 10 4 13 13 11 8 9 19 13 10 16 16 9 13 13 14 13 17 12 15 12 14 10 13 12 6 10 12 11 11 12
24 18 10 6 4 3 3 2 1 4 5 5 5 5 10 7 14 12 11 4 16 19 12 8 6 15 13 14 16 18 19 17 17 10 14 18 15 9 5 9 12 12 12 12 12
18 15 11 9 6 6 2 2 4 4 7 3 4 10 8 13 14 10 10 9 17 18 15 21 10 21 29 23 14 13 17 12 11 8 7 13 15 14 11 14 14 14 13 13 13
13 10 12 8 7 4 4 2 6 4 4 6 6 8 8 10 9 15 13 5 19 21 17 7 17 19 17 18 9 7 15 12 5 7 7 10 12 11 13 17 15 15 13 13 10
12 7 7 6 0 4 8 7 6 4 4 5 5 8 8 6 5 6 4 9 3 22 17 13 9 15 12 14 12 12 15 14 4 9 8 5 14 17 10 7 5 5 8 9 7
14 11 8 5 5 2 5 6 4 4 2 6 2 1 5 3 6 7 5 4 3 21 12 5 5 16 15 17 16 12 8 9 6 7 6 7 3 8 11 8 5 4 4 6 7
18 12 12 12 1 2 3 4 4 3 2 5 4 5 5 3 10 8 3 3 5 7 3 3 4 18 19 17 14 7 10 9 6 4 4 7 5 9 12 10 8 8 7 6 4
19 15 11 6 1 1 2 5 4 4 8 4 4 5 1 3 5 4 6 3 5 8 12 6 4 4 5 2 12 12 12 9 5 3 5 9 7 10 11 11 11 8 7 5 4
22 13 8 4 4 2 4 4 3 6 1 6 2 4 13 6 7 4 2 1 4 5 3 5 4 2 1 10 9 9 14 5 6 5 3 3 5 5 8 10 13 10 6 3 2
20 9 6 5 2 5 4 4 8 5 4 3 3 8 6 3 2 4 4 4 5 10 4 4 5 4 5 2 8 11 11 2 7 7 6 4 7 3 8 9 6 7 3 1 2
17 3 4 1 4 4 4 5 3 2 4 3 4 5 4 5 5 8 6 5 4 1 3 5 5 4 0 3 6 6 7 4 3 2 1 7 4 6 7 9 10 8 2 1 1
5 3 2 2 4 4 0 4 1 3 5 4 2 2 2 3 5 3 1 3 5 2 2 5 7 6 5 5 3 3 4 3 2 4 6 6 5 5 12 12 12 9 6 3 2
4 4 5 0 4 2 4 4 4 3 3 5 4 2 7 4 3 2 4 3 2 3 2 4 4 7 8 8 10 6 5 3 3 2 4 4 4 12 15 13 10 3 3 4 2
4 3 3 3 1 2 3 0 2 1 1 0 1 2 4 4 3 2 3 3 3 2 3 3 6 4 2 3 4 5 5 10 4 5 1 4 4 7 12 9 3 3 4 3 1
5 3 4 2 1 5 5 4 2 1 1 1 2 2 1 4 3 3 2 3 2 0 2 5 5 5 2 3 4 6 9 6 1 3 5 4 6 6 7 5 2 2 4 3 1
3 3 1 2 4 0 4 3 3 2 0 1 2 3 6 4 1 6 4 2 1 2 4 1 3 2 1 3 4 6 11 12 8 4 5 8 7 9 9 3 2 4 4 4 3
3 2 2 2 2 3 2 0 1 1 1 2 3 3 3 4 4 4 6 5 2 3 2 2 2 2 0 3 2 4 8 14 13 10 7 0 6 8 2 3 3 4 4 4 5
4 4 5 4 5 4 1 2 3 2 2 2 3 3 4 2 1 5 8 6 5 7 5 3 2 1 2 3 6 8 10 11 16 16 17 13 12 9 6 2 3 2 2 3 4
4 2 3 3 3 5 3 4 4 5 2 1 5 1 4 2 3 2 2 2 3 6 9 6 5 3 1 2 4 10 18 18 15 10 16 15 11 6 2 1 3 1 2 3 2
Wind_Direction
310 305 306 302 305 313 304 297 289 284 277 243 244 293 274 289 290 248 238 222 220 190 207 201 202 227 210 218 219 230 239 233 236 229 240 231 197 210 248 260 216 175 0 60 98
316 309 308 311 313 305 309 290 290 303 293 227 249 268 307 294 272 247 215 249 212 200 217 193 189 198 197 208 195 213 223 225 237 240 225 235 217 195 199 212 213 199 127 101 120
320 318 310 312 312 301 313 302 300 310 280 236 236 277 307 288 264 247 198 212 209 212 238 198 193 194 204 204 206 216 231 230 250 316 292 248 214 243 207 208 213 209 153 142 149
325 321 313 317 304 288 298 293 288 298 309 290 251 247 265 264 234 139 168 192 196 208 212 201 194 196 202 201 211 235 225 242 234 214 206 247 220 199 233 227 207 120 103 184 174
315 312 312 312 292 304 292 285 279 286 312 291 230 230 242 226 244 102 65 193 191 209 204 202 196 195 207 198 211 221 213 223 253 167 222 237 228 224 211 159 132 159 218 225 208
320 312 312 307 279 278 288 282 282 292 303 280 244 177 242 251 282 159 187 260 201 213 209 201 201 195 228 205 210 204 202 216 202 179 199 217 226 209 231 228 213 229 240 236 235
329 319 294 265 286 281 276 284 282 291 280 278 252 232 245 238 356 76 164 260 260 200 205 203 198 192 219 191 195 248 201 210 217 206 204 224 243 230 244 220 223 229 230 231 251
337 334 318 235 281 276 283 278 281 279 281 278 252 237 254 254 241 245 233 252 234 236 200 196 203 198 238 178 187 186 210 211 200 206 217 189 246 215 229 234 241 244 246 246 233
344 338 340 207 351 317 329 306 281 271 254 232 219 227 251 145 221 211 224 233 243 224 184 178 210 185 197 189 184 199 202 208 188 207 208 201 250 210 189 211 243 244 244 245 247
359 2 79 41 9 7 351 336 145 187 196 206 253 233 239 229 180 180 207 260 228 160 138 179 182 187 198 200 199 197 215 201 205 182 220 223 242 246 249 242 247 250 241 242 248
21 48 38 33 51 33 194 206 189 150 208 268 353 247 5 328 145 181 189 221 159 153 188 170 175 192 195 199 216 229 198 229 216 125 204 227 244 237 227 249 253 254 255 254 251
40 49 22 41 63 8 295 11 40 337 264 241 283 292 276 265 184 163 184 55 161 168 174 167 212 196 195 193 200 245 189 190 175 142 217 225 235 248 240 246 250 258 265 263 263
29 37 21 16 213 59 67 38 332 293 279 32 357 290 300 310 102 111 66 108 203 176 191 187 190 195 201 189 179 204 196 188 234 181 234 271 258 233 220 258 257 259 263 262 260
1 347 342 292 268 336 58 18 2 340 257 20 55 333 277 336 63 64 47 65 348 184 179 150 232 186 179 185 194 185 191 159 164 200 225 207 249 161 165 176 184 177 172 145 151
346 326 332 356 13 83 11 322 305 232 109 33 296 353 284 344 140 35 90 99 181 107 173 103 209 196 184 185 209 109 152 158 154 234 310 196 253 122 171 176 162 138 127 127 122
328 320 319 249 263 56 296 293 251 241 45 14 256 160 237 126 89 150 62 59 45 81 48 59 19 8 23 159 194 133 130 132 133 190 234 218 231 168 188 178 156 156 141 132 125
327 300 292 297 330 328 307 260 269 25 245 15 52 107 72 65 56 80 87 156 120 120 85 41 26 81 330 117 131 170 173 151 185 195 244 128 202 350 104 137 166 156 137 118 90
327 307 237 278 229 307 261 237 46 342 62 208 201 89 70 113 42 130 153 99 68 85 129 143 128 360 346 120 169 195 198 245 204 189 156 157 224 127 143 138 162 135 151 82 36
317 213 258 221 223 272 259 46 61 287 334 93 84 72 104 107 147 211 98 87 129 37 99 123 85 124 83 298 168 170 212 14 353 63 253 175 185 150 175 203 192 193 282 259 299
305 274 246 95 209 245 358 90 69 194 274 289 65 262 130 145 186 185 66 60 120 6 283 117 112 120 138 141 346 219 144 174 161 211 217 171 192 142 163 159 170 201 238 250 231
268 265 99 24 213 215 71 65 105 189 283 324 19 122 121 171 243 88 56 107 88 88 19 115 89 140 159 207 170 159 198 216 298 292 296 179 127 122 154 157 168 187 259 265 292
292 285 128 165 258 98 77 215 290 24 212 129 54 49 150 155 165 123 131 47 98 132 88 24 98 138 159 86 330 326 237 210 242 180 282 305 92 167 138 131 163 282 283 249 34
318 300 152 204 156 118 140 153 232 165 88 123 107 332 269 159 158 145 86 61 121 90 127 158 129 127 174 198 188 220 210 225 162 348 215 279 112 152 151 182 245 278 319 356 48
309 315 90 179 335 230 169 150 182 148 46 338 115 166 168 172 350 157 135 68 60 31 21 3 144 313 261 64 128 193 208 202 195 203 200 235 111 173 178 246 339 345 352 6 354
9 26 4 323 108 331 281 286 214 140 186 247 182 261 198 159 154 147 134 140 179 148 168 263 157 103 48 97 136 221 208 203 209 219 228 162 223 178 152 304 349 338 32 354 358
7 351 326 292 298 265 149 69 8 41 316 139 278 181 193 247 294 169 175 186 182 182 201 178 131 97 276 226 238 249 234 221 220 222 242 259 265 257 283 57 347 5 46 24 12
16 313 314 78 293 269 55 28 33 331 96 6 355 251 218 40 347 13 77 162 155 181 191 183 147 176 239 213 273 263 230 216 214 217 224 231 242 171 208 210 313 283 130 85 81